Time,TemperatureF,DewpointF,PressureIn,WindDirection,WindDirectionDegrees,WindSpeedMPH,WindSpeedGustMPH,Humidity,HourlyPrecipIn,Conditions,Clouds,dailyrainin,SoftwareType,DateUTC
2013-12-04 00:01:00,53.7,52.9,29.89,SE,124,0.0,0.0,97,0.00,RA,,0.00,WeatherDisplay:10.37,2013-12-04 05:01:00,
2013-12-04 00:02:00,53.7,52.9,29.89,SE,124,0.0,0.0,97,0.00,RA,,0.00,WeatherDisplay:10.37,2013-12-04 05:02:00,
2013-12-04 00:03:00,53.7,52.9,29.89,SE,124,0.0,0.0,97,0.00,RA,,0.00,WeatherDisplay:10.37,2013-12-04 05:03:00,
2013-12-04 00:08:00,53.7,52.9,29.89,SE,124,1.2,1.2,97,0.00,RA,,0.00,WeatherDisplay:10.37,2013-12-04 05:08:00,
2013-12-04 00:13:00,53.7,52.9,29.89,SE,124,0.0,0.0,97,0.00,RA,,0.00,WeatherDisplay:10.37,2013-12-04 05:13:00,
2013-12-04 00:18:00,53.7,52.9,29.89,SE,124,0.0,0.0,97,0.00,OVC,,0.00,WeatherDisplay:10.37,2013-12-04 05:18:00,
2013-12-04 00:23:00,53.7,52.9,29.89,SE,124,0.0,0.0,97,0.00,OVC,,0.00,WeatherDisplay:10.37,2013-12-04 05:23:00,
2013-12-04 00:28:00,53.8,53.0,29.90,SE,124,0.0,0.0,97,0.00,OVC,,0.00,WeatherDisplay:10.37,2013-12-04 05:28:00,
2013-12-04 00:33:00,53.8,53.0,29.90,SE,124,0.0,0.0,97,0.00,OVC,,0.00,WeatherDisplay:10.37,2013-12-04 05:33:00,
2013-12-04 00:38:00,53.9,53.1,29.89,SE,124,0.0,0.0,97,0.00,OVC,,0.00,WeatherDisplay:10.37,2013-12-04 05:38:00,
2013-12-04 00:43:00,53.9,53.1,29.89,SE,124,0.0,0.0,97,0.00,OVC,,0.00,WeatherDisplay:10.37,2013-12-04 05:43:00,
2013-12-04 00:48:00,53.9,53.1,29.90,SE,124,0.0,0.0,97,0.00,OVC,,0.00,WeatherDisplay:10.37,2013-12-04 05:48:00,
2013-12-04 00:53:00,53.9,53.1,29.90,SE,124,0.0,0.0,97,0.00,OVC,,0.00,WeatherDisplay:10.37,2013-12-04 05:53:00,
2013-12-04 00:58:00,53.9,53.1,29.90,SE,124,0.0,0.0,97,0.00,OVC,,0.00,WeatherDisplay:10.37,2013-12-04 05:58:00,
2013-12-04 01:03:00,53.9,53.1,29.90,SE,124,0.0,0.0,97,0.00,,,0.00,WeatherDisplay:10.37,2013-12-04 06:03:00,
2013-12-04 01:08:00,53.9,53.1,29.90,SE,124,0.0,0.0,97,0.00,,,0.00,WeatherDisplay:10.37,2013-12-04 06:08:00,
2013-12-04 01:13:00,53.9,53.1,29.90,SE,124,0.0,0.0,97,0.00,,,0.00,WeatherDisplay:10.37,2013-12-04 06:13:00,
2013-12-04 01:18:00,53.9,53.1,29.90,SE,124,0.0,0.0,97,0.00,,,0.00,WeatherDisplay:10.37,2013-12-04 06:18:00,
2013-12-04 01:23:00,53.9,53.1,29.90,SE,124,0.0,0.0,97,0.00,,,0.00,WeatherDisplay:10.37,2013-12-04 06:23:00,
2013-12-04 01:28:00,53.9,53.1,29.89,ESE,123,0.0,0.0,97,0.00,,,0.00,WeatherDisplay:10.37,2013-12-04 06:28:00,
2013-12-04 01:33:00,53.9,53.1,29.90,ESE,123,0.0,0.1,97,0.00,,,0.00,WeatherDisplay:10.37,2013-12-04 06:33:00,
2013-12-04 01:38:00,53.9,53.1,29.89,ESE,123,0.0,0.0,97,0.00,,,0.00,WeatherDisplay:10.37,2013-12-04 06:38:00,
2013-12-04 01:43:00,53.9,53.1,29.89,ESE,123,0.0,0.0,97,0.00,,,0.00,WeatherDisplay:10.37,2013-12-04 06:43:00,
2013-12-04 01:48:00,53.9,53.1,29.89,ESE,123,0.0,0.0,97,0.00,,,0.00,WeatherDisplay:10.37,2013-12-04 06:48:00,
2013-12-04 01:53:00,53.9,53.1,29.90,ESE,123,0.0,0.0,97,0.00,,,0.00,WeatherDisplay:10.37,2013-12-04 06:53:00,
2013-12-04 01:58:00,53.9,53.1,29.90,ESE,123,0.0,0.0,97,0.00,,,0.00,WeatherDisplay:10.37,2013-12-04 06:58:00,
2013-12-04 02:03:00,53.9,53.1,29.89,ESE,123,0.0,0.0,97,0.00,,,0.00,WeatherDisplay:10.37,2013-12-04 07:03:00,
2013-12-04 02:08:00,53.9,53.1,29.90,ESE,123,0.0,0.0,97,0.00,,,0.00,WeatherDisplay:10.37,2013-12-04 07:08:00,
2013-12-04 02:13:00,54.0,53.4,29.90,SSE,149,1.2,1.2,98,0.00,,,0.00,WeatherDisplay:10.37,2013-12-04 07:13:00,
2013-12-04 02:18:00,53.9,53.3,29.90,SE,125,2.3,2.3,98,0.00,,,0.00,WeatherDisplay:10.37,2013-12-04 07:18:00,
2013-12-04 02:23:00,54.0,53.4,29.90,SE,128,2.3,2.3,98,0.00,,,0.00,WeatherDisplay:10.37,2013-12-04 07:23:00,
2013-12-04 02:28:00,54.0,53.4,29.90,SE,128,0.0,0.0,98,0.00,,,0.00,WeatherDisplay:10.37,2013-12-04 07:28:00,
2013-12-04 02:33:00,54.0,53.4,29.90,SE,128,0.0,0.0,98,0.00,,,0.00,WeatherDisplay:10.37,2013-12-04 07:33:00,
2013-12-04 02:38:00,54.0,53.4,29.90,SE,128,0.0,0.0,98,0.00,,,0.00,WeatherDisplay:10.37,2013-12-04 07:38:00,
2013-12-04 02:43:00,54.0,53.4,29.90,ESE,121,1.2,0.0,98,0.00,,,0.00,WeatherDisplay:10.37,2013-12-04 07:43:00,
2013-12-04 02:48:00,53.9,53.3,29.90,SW,217,1.2,0.0,98,0.00,,,0.00,WeatherDisplay:10.37,2013-12-04 07:48:00,
2013-12-04 02:53:00,54.0,53.4,29.90,South,190,0.0,0.0,98,0.00,,,0.00,WeatherDisplay:10.37,2013-12-04 07:53:00,
2013-12-04 02:58:00,54.0,53.4,29.90,South,190,0.0,0.0,98,0.00,,,0.00,WeatherDisplay:10.37,2013-12-04 07:58:00,
2013-12-04 03:03:00,53.9,53.1,29.90,South,190,0.0,0.0,97,0.00,,,0.00,WeatherDisplay:10.37,2013-12-04 08:03:00,
2013-12-04 03:08:00,53.9,53.3,29.90,South,178,1.2,0.0,98,0.00,,,0.00,WeatherDisplay:10.37,2013-12-04 08:08:00,
2013-12-04 03:13:00,54.0,53.4,29.90,South,178,0.0,0.0,98,0.00,,,0.00,WeatherDisplay:10.37,2013-12-04 08:13:00,
2013-12-04 03:18:00,54.0,53.4,29.90,SE,126,1.2,1.2,98,0.00,,,0.00,WeatherDisplay:10.37,2013-12-04 08:18:00,
2013-12-04 03:23:00,54.0,53.4,29.90,South,184,2.3,2.3,98,0.00,,,0.00,WeatherDisplay:10.37,2013-12-04 08:23:00,
2013-12-04 03:28:00,54.0,53.4,29.90,SE,144,0.0,0.0,98,0.00,,,0.00,WeatherDisplay:10.37,2013-12-04 08:28:00,
2013-12-04 03:33:00,54.0,53.4,29.90,SE,144,0.0,0.0,98,0.00,,,0.00,WeatherDisplay:10.37,2013-12-04 08:33:00,
2013-12-04 03:38:00,54.1,53.5,29.90,SE,144,0.0,0.0,98,0.00,,,0.00,WeatherDisplay:10.37,2013-12-04 08:38:00,
2013-12-04 03:43:00,54.0,53.4,29.90,SE,144,0.0,0.0,98,0.00,,,0.00,WeatherDisplay:10.37,2013-12-04 08:43:00,
2013-12-04 03:48:00,54.1,53.5,29.90,SE,144,1.2,0.0,98,0.00,,,0.00,WeatherDisplay:10.37,2013-12-04 08:48:00,
2013-12-04 03:53:00,54.1,53.5,29.90,SE,144,0.0,0.0,98,0.00,,,0.00,WeatherDisplay:10.37,2013-12-04 08:53:00,
2013-12-04 03:58:00,54.1,53.5,29.90,SE,144,0.0,0.0,98,0.00,,,0.00,WeatherDisplay:10.37,2013-12-04 08:58:00,
2013-12-04 04:03:00,54.1,53.5,29.90,SE,144,0.0,0.0,98,0.00,-RA,,0.00,WeatherDisplay:10.37,2013-12-04 09:03:00,
2013-12-04 04:08:00,54.0,53.4,29.90,SE,144,0.0,0.0,98,0.00,-RA,,0.00,WeatherDisplay:10.37,2013-12-04 09:08:00,
2013-12-04 04:13:00,54.1,53.5,29.90,SE,144,0.0,0.0,98,0.00,,,0.00,WeatherDisplay:10.37,2013-12-04 09:13:00,
2013-12-04 04:18:00,54.1,53.5,29.90,SE,144,1.2,0.0,98,0.00,,,0.00,WeatherDisplay:10.37,2013-12-04 09:18:00,
2013-12-04 04:23:00,54.1,53.5,29.90,SE,144,0.0,0.0,98,0.00,-RA,,0.00,WeatherDisplay:10.37,2013-12-04 09:23:00,
2013-12-04 04:28:00,54.1,53.5,29.90,SE,144,0.0,0.0,98,0.00,-RA,,0.00,WeatherDisplay:10.37,2013-12-04 09:28:00,
2013-12-04 04:33:00,54.1,53.5,29.90,SE,144,0.0,0.0,98,0.00,,,0.00,WeatherDisplay:10.37,2013-12-04 09:33:00,
2013-12-04 04:38:00,54.1,53.5,29.90,SE,144,0.0,0.0,98,0.00,,,0.00,WeatherDisplay:10.37,2013-12-04 09:38:00,
2013-12-04 04:43:00,54.1,53.5,29.90,East,88,0.0,0.0,98,0.00,,,0.00,WeatherDisplay:10.37,2013-12-04 09:43:00,
2013-12-04 04:48:00,54.1,53.5,29.91,East,88,0.0,0.0,98,0.00,,,0.00,WeatherDisplay:10.37,2013-12-04 09:48:00,
2013-12-04 04:53:00,54.1,53.5,29.90,East,88,0.0,0.0,98,0.00,,,0.00,WeatherDisplay:10.37,2013-12-04 09:53:00,
2013-12-04 04:58:00,54.1,53.5,29.91,East,88,0.0,0.0,98,0.00,,,0.00,WeatherDisplay:10.37,2013-12-04 09:58:00,
2013-12-04 05:03:00,54.1,53.5,29.91,East,88,0.0,0.0,98,0.00,,,0.00,WeatherDisplay:10.37,2013-12-04 10:03:00,
2013-12-04 05:08:00,54.1,53.5,29.92,East,88,0.0,0.0,98,0.00,,,0.00,WeatherDisplay:10.37,2013-12-04 10:08:00,
2013-12-04 05:13:00,54.1,53.5,29.92,East,88,0.0,0.0,98,0.00,OVC,,0.00,WeatherDisplay:10.37,2013-12-04 10:13:00,
2013-12-04 05:18:00,54.2,53.6,29.92,East,88,0.0,0.0,98,0.00,OVC,,0.00,WeatherDisplay:10.37,2013-12-04 10:18:00,
2013-12-04 05:23:00,54.2,53.6,29.92,East,88,0.0,0.0,98,0.00,,,0.00,WeatherDisplay:10.37,2013-12-04 10:23:00,
2013-12-04 05:28:00,54.2,53.6,29.92,East,88,0.0,0.0,98,0.00,,,0.00,WeatherDisplay:10.37,2013-12-04 10:28:00,
2013-12-04 05:33:00,54.2,53.6,29.92,East,88,1.2,0.0,98,0.00,,,0.00,WeatherDisplay:10.37,2013-12-04 10:33:00,
2013-12-04 05:38:00,54.2,53.6,29.92,South,188,0.0,0.1,98,0.00,,,0.00,WeatherDisplay:10.37,2013-12-04 10:38:00,
2013-12-04 05:43:00,54.2,53.6,29.92,East,100,0.0,0.0,98,0.00,,,0.00,WeatherDisplay:10.37,2013-12-04 10:43:00,
2013-12-04 05:48:00,54.2,53.6,29.93,East,100,0.0,0.0,98,0.00,,,0.00,WeatherDisplay:10.37,2013-12-04 10:48:00,
2013-12-04 05:53:00,54.2,53.6,29.93,East,100,0.0,0.0,98,0.00,,,0.00,WeatherDisplay:10.37,2013-12-04 10:53:00,
2013-12-04 05:58:00,54.3,53.7,29.93,East,100,0.0,0.0,98,0.00,,,0.00,WeatherDisplay:10.37,2013-12-04 10:58:00,
2013-12-04 06:03:00,54.3,53.7,29.93,East,100,0.0,0.0,98,0.00,,,0.00,WeatherDisplay:10.37,2013-12-04 11:03:00,
2013-12-04 06:08:00,54.3,53.7,29.93,East,100,0.0,0.0,98,0.00,,,0.00,WeatherDisplay:10.37,2013-12-04 11:08:00,
2013-12-04 06:13:00,54.3,53.7,29.94,East,100,0.0,0.0,98,0.00,,,0.00,WeatherDisplay:10.37,2013-12-04 11:13:00,
2013-12-04 06:18:00,54.3,53.7,29.93,East,100,0.0,0.0,98,0.00,,,0.00,WeatherDisplay:10.37,2013-12-04 11:18:00,
2013-12-04 06:23:00,54.2,53.6,29.93,East,100,0.0,0.0,98,0.00,,,0.00,WeatherDisplay:10.37,2013-12-04 11:23:00,
2013-12-04 06:28:00,54.2,53.6,29.93,East,100,0.0,0.0,98,0.00,,,0.00,WeatherDisplay:10.37,2013-12-04 11:28:00,
2013-12-04 06:33:00,54.3,53.7,29.94,East,100,0.0,0.0,98,0.00,,,0.00,WeatherDisplay:10.37,2013-12-04 11:33:00,
2013-12-04 06:38:00,54.3,53.7,29.94,East,100,0.0,0.0,98,0.00,,,0.00,WeatherDisplay:10.37,2013-12-04 11:38:00,
2013-12-04 06:43:00,54.3,53.7,29.94,East,100,0.0,0.0,98,0.00,,,0.00,WeatherDisplay:10.37,2013-12-04 11:43:00,
2013-12-04 06:48:00,54.2,53.6,29.94,East,100,0.0,0.0,98,0.00,,,0.00,WeatherDisplay:10.37,2013-12-04 11:48:00,
2013-12-04 06:53:00,54.3,53.7,29.94,East,100,0.0,0.0,98,0.00,,,0.00,WeatherDisplay:10.37,2013-12-04 11:53:00,
2013-12-04 06:58:00,54.3,53.7,29.94,East,100,0.0,0.0,98,0.00,,,0.00,WeatherDisplay:10.37,2013-12-04 11:58:00,
2013-12-04 07:03:00,54.2,53.6,29.94,East,100,0.0,0.0,98,0.00,OVC,,0.00,WeatherDisplay:10.37,2013-12-04 12:03:00,
2013-12-04 07:08:00,54.2,53.6,29.94,East,100,0.0,0.0,98,0.00,OVC,,0.00,WeatherDisplay:10.37,2013-12-04 12:08:00,
2013-12-04 07:13:00,54.3,53.7,29.94,East,100,0.0,0.0,98,0.00,OVC,,0.00,WeatherDisplay:10.37,2013-12-04 12:13:00,
2013-12-04 07:18:00,54.3,53.7,29.95,East,100,0.0,0.0,98,0.00,OVC,,0.00,WeatherDisplay:10.37,2013-12-04 12:18:00,
2013-12-04 07:23:00,54.3,53.7,29.95,East,100,0.0,0.0,98,0.00,OVC,,0.00,WeatherDisplay:10.37,2013-12-04 12:23:00,
2013-12-04 07:28:00,54.3,53.7,29.95,East,100,0.0,0.0,98,0.00,OVC,,0.00,WeatherDisplay:10.37,2013-12-04 12:28:00,
2013-12-04 07:33:00,54.3,53.7,29.95,East,100,0.0,0.0,98,0.00,OVC,,0.00,WeatherDisplay:10.37,2013-12-04 12:33:00,
2013-12-04 07:38:00,54.4,53.8,29.95,East,100,0.0,0.0,98,0.00,OVC,,0.00,WeatherDisplay:10.37,2013-12-04 12:38:00,
2013-12-04 07:43:00,54.4,53.8,29.95,East,100,0.0,0.0,98,0.00,OVC,,0.00,WeatherDisplay:10.37,2013-12-04 12:43:00,
2013-12-04 07:48:00,54.4,53.8,29.95,East,100,0.0,0.0,98,0.00,OVC,,0.00,WeatherDisplay:10.37,2013-12-04 12:48:00,
2013-12-04 07:53:00,54.4,53.8,29.95,East,100,0.0,0.0,98,0.00,,,0.00,WeatherDisplay:10.37,2013-12-04 12:53:00,
2013-12-04 07:58:00,54.4,53.8,29.95,East,100,0.0,0.0,98,0.00,,,0.00,WeatherDisplay:10.37,2013-12-04 12:58:00,
2013-12-04 08:03:00,54.5,53.9,29.96,SE,134,0.0,0.0,98,0.00,,,0.00,WeatherDisplay:10.37,2013-12-04 13:03:00,
2013-12-04 08:08:00,54.5,53.9,29.96,SE,134,0.0,0.0,98,0.00,,,0.00,WeatherDisplay:10.37,2013-12-04 13:08:00,
2013-12-04 08:13:00,54.6,54.0,29.96,SE,134,0.0,0.0,98,0.00,,,0.00,WeatherDisplay:10.37,2013-12-04 13:13:00,
2013-12-04 08:18:00,54.6,54.0,29.96,SE,134,0.0,0.0,98,0.00,,,0.00,WeatherDisplay:10.37,2013-12-04 13:18:00,
2013-12-04 08:23:00,54.7,54.1,29.97,SE,134,0.0,0.0,98,0.00,,,0.00,WeatherDisplay:10.37,2013-12-04 13:23:00,
2013-12-04 08:28:00,54.7,54.1,29.97,ESE,115,1.0,1.0,98,0.00,,,0.00,WeatherDisplay:10.37,2013-12-04 13:28:00,
2013-12-04 08:33:00,54.8,54.2,29.97,ESE,115,0.0,0.0,98,0.00,,,0.00,WeatherDisplay:10.37,2013-12-04 13:33:00,
2013-12-04 08:38:00,54.9,54.3,29.97,ESE,115,0.0,0.0,98,0.00,,,0.00,WeatherDisplay:10.37,2013-12-04 13:38:00,
2013-12-04 08:43:00,54.9,54.3,29.97,ESE,115,0.0,0.0,98,0.00,,,0.00,WeatherDisplay:10.37,2013-12-04 13:43:00,
2013-12-04 08:48:00,55.0,54.4,29.98,ESE,115,0.0,0.0,98,0.00,,,0.00,WeatherDisplay:10.37,2013-12-04 13:48:00,
2013-12-04 08:53:00,55.1,54.5,29.98,ESE,115,0.0,0.0,98,0.00,OVC,,0.00,WeatherDisplay:10.37,2013-12-04 13:53:00,
2013-12-04 08:58:00,55.2,54.6,29.98,ESE,115,0.0,0.0,98,0.00,OVC,,0.00,WeatherDisplay:10.37,2013-12-04 13:58:00,
2013-12-04 09:03:00,55.3,54.7,29.99,ESE,115,0.0,0.0,98,0.00,OVC,,0.00,WeatherDisplay:10.37,2013-12-04 14:03:00,
2013-12-04 09:08:00,55.5,54.9,29.99,ESE,115,0.0,0.0,98,0.00,OVC,,0.00,WeatherDisplay:10.37,2013-12-04 14:08:00,
2013-12-04 09:13:00,55.6,55.0,29.99,ESE,115,0.0,0.0,98,0.00,OVC,,0.00,WeatherDisplay:10.37,2013-12-04 14:13:00,
2013-12-04 09:18:00,55.7,55.1,29.99,ESE,115,0.0,0.0,98,0.00,OVC,,0.00,WeatherDisplay:10.37,2013-12-04 14:18:00,
2013-12-04 09:23:00,55.8,55.2,30.00,ESE,109,1.2,1.2,98,0.00,OVC,,0.00,WeatherDisplay:10.37,2013-12-04 14:23:00,
2013-12-04 09:28:00,55.9,55.3,30.00,ESE,109,0.0,0.0,98,0.00,OVC,,0.00,WeatherDisplay:10.37,2013-12-04 14:28:00,
2013-12-04 09:33:00,56.0,55.4,30.00,ESE,109,0.0,0.0,98,0.00,OVC,,0.00,WeatherDisplay:10.37,2013-12-04 14:33:00,
2013-12-04 09:38:00,56.1,55.5,30.00,ESE,109,1.2,0.0,98,0.00,OVC,,0.00,WeatherDisplay:10.37,2013-12-04 14:38:00,
2013-12-04 09:43:00,56.2,55.6,29.99,ESE,109,0.0,0.0,98,0.00,OVC,,0.00,WeatherDisplay:10.37,2013-12-04 14:43:00,
2013-12-04 09:48:00,56.3,55.7,29.99,ESE,112,0.0,0.0,98,0.00,OVC,,0.00,WeatherDisplay:10.37,2013-12-04 14:48:00,
2013-12-04 09:53:00,56.4,55.8,29.99,ESE,112,0.0,0.0,98,0.00,OVC,,0.00,WeatherDisplay:10.37,2013-12-04 14:53:00,
2013-12-04 09:58:00,56.5,55.9,29.99,ESE,112,0.0,0.0,98,0.00,OVC,,0.00,WeatherDisplay:10.37,2013-12-04 14:58:00,
2013-12-04 10:03:00,56.7,56.1,30.00,ESE,112,0.0,0.0,98,0.00,OVC,,0.00,WeatherDisplay:10.37,2013-12-04 15:03:00,
2013-12-04 10:08:00,56.8,56.2,30.00,ESE,112,0.0,0.0,98,0.00,OVC,,0.00,WeatherDisplay:10.37,2013-12-04 15:08:00,
2013-12-04 10:13:00,57.1,56.5,30.00,ESE,112,0.0,0.0,98,0.00,OVC,,0.00,WeatherDisplay:10.37,2013-12-04 15:13:00,
2013-12-04 10:18:00,57.3,56.7,30.00,ESE,112,0.0,0.0,98,0.00,OVC,,0.00,WeatherDisplay:10.37,2013-12-04 15:18:00,
2013-12-04 10:23:00,57.6,57.0,30.00,ESE,112,2.3,2.3,98,0.00,OVC,,0.00,WeatherDisplay:10.37,2013-12-04 15:23:00,
2013-12-04 10:28:00,57.7,57.1,30.00,ESE,112,0.0,0.0,98,0.00,OVC,,0.00,WeatherDisplay:10.37,2013-12-04 15:28:00,
2013-12-04 10:33:00,57.9,57.3,30.00,ESE,112,0.0,0.0,98,0.00,OVC,,0.00,WeatherDisplay:10.37,2013-12-04 15:33:00,
2013-12-04 10:38:00,58.1,57.5,30.00,ESE,112,0.0,0.0,98,0.00,OVC,,0.00,WeatherDisplay:10.37,2013-12-04 15:38:00,
2013-12-04 10:43:00,58.5,57.9,30.00,ESE,112,0.0,0.0,98,0.00,OVC,,0.00,WeatherDisplay:10.37,2013-12-04 15:43:00,
2013-12-04 10:48:00,58.7,58.1,30.00,ESE,112,0.0,0.0,98,0.00,OVC,,0.00,WeatherDisplay:10.37,2013-12-04 15:48:00,
2013-12-04 10:53:00,58.8,58.2,30.00,ESE,112,0.0,0.0,98,0.00,OVC,,0.00,WeatherDisplay:10.37,2013-12-04 15:53:00,
2013-12-04 10:58:00,58.9,58.3,30.00,ESE,112,0.0,0.0,98,0.00,OVC,,0.00,WeatherDisplay:10.37,2013-12-04 15:58:00,
2013-12-04 11:03:00,58.9,58.3,30.00,ESE,112,1.2,0.0,98,0.00,OVC,,0.00,WeatherDisplay:10.37,2013-12-04 16:03:00,
2013-12-04 11:08:00,59.0,58.4,30.00,ESE,112,2.3,2.3,98,0.00,OVC,,0.00,WeatherDisplay:10.37,2013-12-04 16:08:00,
2013-12-04 11:13:00,59.1,58.5,30.00,ESE,112,0.0,0.0,98,0.00,OVC,,0.00,WeatherDisplay:10.37,2013-12-04 16:13:00,
2013-12-04 11:18:00,59.1,58.5,29.99,ESE,112,0.0,0.0,98,0.00,OVC,,0.00,WeatherDisplay:10.37,2013-12-04 16:18:00,
2013-12-04 11:23:00,59.4,58.8,29.99,ESE,112,1.2,0.0,98,0.00,OVC,,0.00,WeatherDisplay:10.37,2013-12-04 16:23:00,
2013-12-04 11:28:00,59.5,58.9,29.99,ESE,112,0.0,0.0,98,0.00,OVC,,0.00,WeatherDisplay:10.37,2013-12-04 16:28:00,
2013-12-04 11:33:00,59.8,59.2,29.99,ESE,112,0.0,0.0,98,0.00,BKN,,0.00,WeatherDisplay:10.37,2013-12-04 16:33:00,
2013-12-04 11:38:00,59.9,59.3,29.99,ESE,112,0.0,0.0,98,0.00,BKN,,0.00,WeatherDisplay:10.37,2013-12-04 16:38:00,
2013-12-04 11:43:00,60.2,59.6,29.98,ESE,112,0.0,0.0,98,0.00,BKN,,0.00,WeatherDisplay:10.37,2013-12-04 16:43:00,
2013-12-04 11:48:00,60.5,59.9,29.98,SE,144,3.5,3.5,98,0.00,BKN,,0.00,WeatherDisplay:10.37,2013-12-04 16:48:00,
2013-12-04 11:53:00,60.7,60.1,29.98,SE,126,1.2,0.0,98,0.00,BKN,,0.00,WeatherDisplay:10.37,2013-12-04 16:53:00,
2013-12-04 11:58:00,60.8,60.2,29.98,SE,126,1.2,1.2,98,0.00,BKN,,0.00,WeatherDisplay:10.37,2013-12-04 16:58:00,
2013-12-04 12:03:00,61.2,60.6,29.97,SE,126,0.0,0.1,98,0.00,BKN,,0.00,WeatherDisplay:10.37,2013-12-04 17:03:00,
2013-12-04 12:08:00,61.5,60.9,29.97,SE,126,0.0,0.0,98,0.00,BKN,,0.00,WeatherDisplay:10.37,2013-12-04 17:08:00,
2013-12-04 12:13:00,61.9,61.3,29.96,SE,126,0.0,0.0,98,0.01,RA,,0.01,WeatherDisplay:10.37,2013-12-04 17:13:00,
2013-12-04 12:18:00,62.2,61.6,29.96,SE,126,0.0,0.0,98,0.01,RA,,0.01,WeatherDisplay:10.37,2013-12-04 17:18:00,
2013-12-04 12:23:00,62.3,61.7,29.95,SE,126,1.2,0.0,98,0.01,RA,,0.01,WeatherDisplay:10.37,2013-12-04 17:23:00,
2013-12-04 12:28:00,62.5,61.9,29.95,SE,126,0.0,0.0,98,0.01,BKN,,0.01,WeatherDisplay:10.37,2013-12-04 17:28:00,
2013-12-04 12:33:00,62.9,62.3,29.95,SE,125,1.0,1.0,98,0.01,BKN,,0.01,WeatherDisplay:10.37,2013-12-04 17:33:00,
2013-12-04 12:38:00,62.9,62.3,29.95,NE,47,1.2,1.2,98,0.01,BKN,,0.01,WeatherDisplay:10.37,2013-12-04 17:38:00,
2013-12-04 12:43:00,62.8,62.2,29.94,ENE,73,1.0,0.0,98,0.01,BKN,,0.01,WeatherDisplay:10.37,2013-12-04 17:43:00,
2013-12-04 12:48:00,62.9,62.3,29.94,East,84,0.0,0.0,98,0.01,BKN,,0.01,WeatherDisplay:10.37,2013-12-04 17:48:00,
2013-12-04 12:53:00,63.0,62.4,29.94,East,84,0.0,0.0,98,0.01,BKN,,0.01,WeatherDisplay:10.37,2013-12-04 17:53:00,
2013-12-04 12:58:00,63.1,62.5,29.94,East,84,1.2,0.0,98,0.01,BKN,,0.01,WeatherDisplay:10.37,2013-12-04 17:58:00,
2013-12-04 13:03:00,63.2,62.6,29.94,East,84,0.0,0.0,98,0.01,BKN,,0.01,WeatherDisplay:10.37,2013-12-04 18:03:00,
2013-12-04 13:08:00,63.3,62.7,29.94,East,84,0.0,0.0,98,0.01,BKN,,0.01,WeatherDisplay:10.37,2013-12-04 18:08:00,
2013-12-04 13:13:00,63.4,62.8,29.93,East,84,0.0,0.0,98,0.00,OVC,,0.01,WeatherDisplay:10.37,2013-12-04 18:13:00,
2013-12-04 13:18:00,63.5,62.9,29.93,East,84,0.0,0.0,98,0.00,OVC,,0.01,WeatherDisplay:10.37,2013-12-04 18:18:00,
2013-12-04 13:23:00,63.6,63.0,29.93,East,84,0.0,0.0,98,0.00,BKN,,0.01,WeatherDisplay:10.37,2013-12-04 18:23:00,
2013-12-04 13:28:00,63.8,63.2,29.93,East,84,0.0,0.0,98,0.00,BKN,,0.01,WeatherDisplay:10.37,2013-12-04 18:28:00,
2013-12-04 13:33:00,64.0,63.4,29.93,ESE,109,0.0,0.0,98,0.00,BKN,,0.01,WeatherDisplay:10.37,2013-12-04 18:33:00,
2013-12-04 13:38:00,64.1,63.5,29.92,SE,129,1.2,0.0,98,0.00,BKN,,0.01,WeatherDisplay:10.37,2013-12-04 18:38:00,
2013-12-04 13:43:00,64.1,63.5,29.92,SSE,147,1.2,1.2,98,0.00,BKN,,0.01,WeatherDisplay:10.37,2013-12-04 18:43:00,
2013-12-04 13:48:00,64.3,63.7,29.92,SSE,151,0.0,0.0,98,0.00,BKN,,0.01,WeatherDisplay:10.37,2013-12-04 18:48:00,
2013-12-04 13:53:00,64.4,63.8,29.92,ESE,112,0.0,0.0,98,0.00,BKN,,0.01,WeatherDisplay:10.37,2013-12-04 18:53:00,
2013-12-04 13:58:00,64.6,64.0,29.92,WSW,254,0.0,0.0,98,0.00,BKN,,0.01,WeatherDisplay:10.37,2013-12-04 18:58:00,
2013-12-04 14:03:00,64.7,64.1,29.92,SSE,148,0.0,0.0,98,0.00,BKN,,0.01,WeatherDisplay:10.37,2013-12-04 19:03:00,
2013-12-04 14:08:00,64.9,64.0,29.92,SSE,164,2.3,2.3,97,0.00,BKN,,0.01,WeatherDisplay:10.37,2013-12-04 19:08:00,
2013-12-04 14:13:00,65.3,64.1,29.92,WSW,237,3.5,3.5,96,0.00,BKN,,0.01,WeatherDisplay:10.37,2013-12-04 19:13:00,
2013-12-04 14:18:00,65.5,63.4,29.92,ESE,122,3.0,0.0,93,0.00,BKN,,0.01,WeatherDisplay:10.37,2013-12-04 19:18:00,
2013-12-04 14:23:00,65.7,63.3,29.91,SSE,159,3.5,3.5,92,0.00,BKN,,0.01,WeatherDisplay:10.37,2013-12-04 19:23:00,
2013-12-04 14:28:00,66.1,63.4,29.91,SSW,202,2.0,2.0,91,0.00,BKN,,0.01,WeatherDisplay:10.37,2013-12-04 19:28:00,
2013-12-04 14:33:00,66.6,63.3,29.91,SSW,206,3.5,3.5,89,0.00,BKN,,0.01,WeatherDisplay:10.37,2013-12-04 19:33:00,
2013-12-04 14:38:00,67.0,63.3,29.91,SSW,194,2.3,2.3,88,0.00,BKN,,0.01,WeatherDisplay:10.37,2013-12-04 19:38:00,
2013-12-04 14:43:00,67.2,63.2,29.90,SW,215,0.0,0.0,87,0.00,BKN,,0.01,WeatherDisplay:10.37,2013-12-04 19:43:00,
2013-12-04 14:48:00,67.3,63.3,29.91,SSW,209,1.2,1.2,87,0.00,BKN,,0.01,WeatherDisplay:10.37,2013-12-04 19:48:00,
2013-12-04 14:53:00,67.4,63.4,29.91,SW,232,2.3,2.3,87,0.00,BKN,,0.01,WeatherDisplay:10.37,2013-12-04 19:53:00,
2013-12-04 14:58:00,67.5,63.2,29.91,SW,219,0.0,0.0,86,0.00,BKN,,0.01,WeatherDisplay:10.37,2013-12-04 19:58:00,
2013-12-04 15:03:00,67.6,63.3,29.91,SW,234,1.2,0.0,86,0.00,BKN,,0.01,WeatherDisplay:10.37,2013-12-04 20:03:00,
2013-12-04 15:08:00,67.7,62.7,29.91,ESE,114,3.5,3.5,84,0.00,BKN,,0.01,WeatherDisplay:10.37,2013-12-04 20:08:00,
2013-12-04 15:13:00,67.8,62.8,29.91,WSW,238,3.5,3.5,84,0.00,BKN,,0.01,WeatherDisplay:10.37,2013-12-04 20:13:00,
2013-12-04 15:18:00,67.8,62.4,29.92,South,185,2.3,2.3,83,0.00,BKN,,0.01,WeatherDisplay:10.37,2013-12-04 20:18:00,
2013-12-04 15:23:00,67.7,62.7,29.92,SE,138,3.5,0.0,84,0.00,BKN,,0.01,WeatherDisplay:10.37,2013-12-04 20:23:00,
2013-12-04 15:28:00,67.7,62.7,29.92,South,182,0.0,0.0,84,0.00,BKN,,0.01,WeatherDisplay:10.37,2013-12-04 20:28:00,
2013-12-04 15:33:00,67.7,62.3,29.92,SSE,148,1.2,1.2,83,0.00,BKN,,0.01,WeatherDisplay:10.37,2013-12-04 20:33:00,
2013-12-04 15:38:00,67.7,62.3,29.92,South,169,1.2,1.2,83,0.00,BKN,,0.01,WeatherDisplay:10.37,2013-12-04 20:38:00,
2013-12-04 15:43:00,67.7,62.3,29.92,SW,231,0.0,0.0,83,0.00,BKN,,0.01,WeatherDisplay:10.37,2013-12-04 20:43:00,
2013-12-04 15:48:00,67.7,62.3,29.92,South,178,2.0,2.0,83,0.00,BKN,,0.01,WeatherDisplay:10.37,2013-12-04 20:48:00,
2013-12-04 15:53:00,67.8,62.4,29.92,South,189,0.0,0.0,83,0.00,BKN,,0.01,WeatherDisplay:10.37,2013-12-04 20:53:00,
2013-12-04 15:58:00,67.8,62.4,29.92,SSW,195,1.2,1.2,83,0.00,BKN,,0.01,WeatherDisplay:10.37,2013-12-04 20:58:00,
2013-12-04 16:03:00,67.8,62.4,29.92,South,175,1.2,1.2,83,0.00,BKN,,0.01,WeatherDisplay:10.37,2013-12-04 21:03:00,
2013-12-04 16:08:00,67.7,62.0,29.92,South,175,0.0,0.0,82,0.00,BKN,,0.01,WeatherDisplay:10.37,2013-12-04 21:08:00,
2013-12-04 16:13:00,67.7,62.0,29.92,SSE,153,0.0,0.0,82,0.00,BKN,,0.01,WeatherDisplay:10.37,2013-12-04 21:13:00,
2013-12-04 16:18:00,67.6,62.3,29.92,SSE,153,0.0,0.0,83,0.00,BKN,,0.01,WeatherDisplay:10.37,2013-12-04 21:18:00,
2013-12-04 16:23:00,67.6,62.3,29.92,SSE,153,0.0,0.0,83,0.00,BKN,,0.01,WeatherDisplay:10.37,2013-12-04 21:23:00,
2013-12-04 16:28:00,67.5,62.5,29.93,SSE,153,0.0,0.0,84,0.00,BKN,,0.01,WeatherDisplay:10.37,2013-12-04 21:28:00,
2013-12-04 16:33:00,67.5,62.5,29.93,SSE,153,0.0,0.0,84,0.00,BKN,,0.01,WeatherDisplay:10.37,2013-12-04 21:33:00,
2013-12-04 16:38:00,67.3,62.3,29.93,SSE,153,0.0,0.0,84,0.00,BKN,,0.01,WeatherDisplay:10.37,2013-12-04 21:38:00,
2013-12-04 16:43:00,67.2,62.5,29.93,SSE,153,0.0,0.0,85,0.00,BKN,,0.01,WeatherDisplay:10.37,2013-12-04 21:43:00,
2013-12-04 16:48:00,67.1,62.1,29.93,SSE,153,0.0,0.0,84,0.00,BKN,,0.01,WeatherDisplay:10.37,2013-12-04 21:48:00,
2013-12-04 16:53:00,67.0,62.3,29.93,SSE,153,0.0,0.0,85,0.00,BKN,,0.01,WeatherDisplay:10.37,2013-12-04 21:53:00,
2013-12-04 16:58:00,66.9,62.2,29.93,SSE,153,0.0,0.0,85,0.00,BKN,,0.01,WeatherDisplay:10.37,2013-12-04 21:58:00,
2013-12-04 17:03:00,66.8,62.1,29.93,SSE,153,0.0,0.0,85,0.00,BKN,,0.01,WeatherDisplay:10.37,2013-12-04 22:03:00,
2013-12-04 17:08:00,66.7,62.4,29.93,SSE,153,0.0,0.0,86,0.00,BKN,,0.01,WeatherDisplay:10.37,2013-12-04 22:08:00,
2013-12-04 17:13:00,66.5,62.2,29.93,SSE,153,0.0,0.1,86,0.00,BKN,,0.01,WeatherDisplay:10.37,2013-12-04 22:13:00,
2013-12-04 17:18:00,66.3,62.0,29.93,SSE,153,0.0,0.0,86,0.00,BKN,,0.01,WeatherDisplay:10.37,2013-12-04 22:18:00,
2013-12-04 17:23:00,66.2,61.9,29.93,SSE,153,1.2,0.0,86,0.00,BKN,,0.01,WeatherDisplay:10.37,2013-12-04 22:23:00,
2013-12-04 17:28:00,66.1,61.8,29.94,SSE,153,0.0,0.0,86,0.00,BKN,,0.01,WeatherDisplay:10.37,2013-12-04 22:28:00,
2013-12-04 17:33:00,65.9,61.6,29.94,SSE,153,0.0,0.0,86,0.00,BKN,,0.01,WeatherDisplay:10.37,2013-12-04 22:33:00,
2013-12-04 17:38:00,65.8,61.5,29.94,SSE,153,0.0,0.0,86,0.00,BKN,,0.01,WeatherDisplay:10.37,2013-12-04 22:38:00,
2013-12-04 17:43:00,65.6,61.6,29.94,SSE,153,0.0,0.0,87,0.00,BKN,,0.01,WeatherDisplay:10.37,2013-12-04 22:43:00,
2013-12-04 17:48:00,65.5,61.5,29.94,SSE,153,0.0,0.0,87,0.00,BKN,,0.01,WeatherDisplay:10.37,2013-12-04 22:48:00,
2013-12-04 17:53:00,65.3,61.3,29.95,SSE,153,0.0,0.0,87,0.00,BKN,,0.01,WeatherDisplay:10.37,2013-12-04 22:53:00,
2013-12-04 17:58:00,65.0,61.4,29.95,SSE,153,0.0,0.0,88,0.00,BKN,,0.01,WeatherDisplay:10.37,2013-12-04 22:58:00,
2013-12-04 18:03:00,64.8,61.2,29.95,SSE,153,0.0,0.0,88,0.00,BKN,,0.01,WeatherDisplay:10.37,2013-12-04 23:03:00,
2013-12-04 18:08:00,64.6,61.3,29.95,SSE,153,0.0,0.0,89,0.00,BKN,,0.01,WeatherDisplay:10.37,2013-12-04 23:08:00,
2013-12-04 18:13:00,64.4,61.1,29.95,SSE,153,0.0,0.0,89,0.00,BKN,,0.01,WeatherDisplay:10.37,2013-12-04 23:13:00,
2013-12-04 18:18:00,64.3,61.0,29.96,SSE,153,0.0,0.0,89,0.00,BKN,,0.01,WeatherDisplay:10.37,2013-12-04 23:18:00,
2013-12-04 18:23:00,64.1,60.8,29.96,SSE,153,0.0,0.0,89,0.00,BKN,,0.01,WeatherDisplay:10.37,2013-12-04 23:23:00,
2013-12-04 18:28:00,63.9,60.9,29.96,SSE,153,0.0,0.0,90,0.00,BKN,,0.01,WeatherDisplay:10.37,2013-12-04 23:28:00,
2013-12-04 18:33:00,63.7,60.7,29.96,SSE,153,0.0,0.0,90,0.00,BKN,,0.01,WeatherDisplay:10.37,2013-12-04 23:33:00,
2013-12-04 18:38:00,63.6,60.6,29.96,SSE,153,0.0,0.0,90,0.00,BKN,,0.01,WeatherDisplay:10.37,2013-12-04 23:38:00,
2013-12-04 18:43:00,63.5,60.8,29.96,SSE,153,0.0,0.0,91,0.00,BKN,,0.01,WeatherDisplay:10.37,2013-12-04 23:43:00,
2013-12-04 18:48:00,63.4,60.7,29.96,SSE,153,0.0,0.0,91,0.00,BKN,,0.01,WeatherDisplay:10.37,2013-12-04 23:48:00,
2013-12-04 18:53:00,63.3,60.6,29.97,SSE,153,0.0,0.0,91,0.00,BKN,,0.01,WeatherDisplay:10.37,2013-12-04 23:53:00,
2013-12-04 18:58:00,63.3,60.6,29.96,SSE,153,0.0,0.0,91,0.00,BKN,,0.01,WeatherDisplay:10.37,2013-12-04 23:58:00,
2013-12-04 19:03:00,63.2,60.8,29.96,SSE,153,0.0,0.0,92,0.00,BKN,,0.01,WeatherDisplay:10.37,2013-12-05 00:03:00,
2013-12-04 19:08:00,63.2,60.5,29.97,SSE,153,0.0,0.0,91,0.00,BKN,,0.01,WeatherDisplay:10.37,2013-12-05 00:08:00,
2013-12-04 19:13:00,63.1,60.4,29.96,SSE,153,0.0,0.0,91,0.00,BKN,,0.01,WeatherDisplay:10.37,2013-12-05 00:13:00,
2013-12-04 19:18:00,63.0,60.3,29.97,SSE,153,0.0,0.0,91,0.00,BKN,,0.01,WeatherDisplay:10.37,2013-12-05 00:18:00,
2013-12-04 19:23:00,62.9,60.5,29.97,SSE,153,0.0,0.0,92,0.00,BKN,,0.01,WeatherDisplay:10.37,2013-12-05 00:23:00,
2013-12-04 19:28:00,62.7,60.3,29.97,SSE,153,0.0,0.0,92,0.00,BKN,,0.01,WeatherDisplay:10.37,2013-12-05 00:28:00,
2013-12-04 19:33:00,62.5,60.1,29.97,SSE,153,0.0,0.0,92,0.00,BKN,,0.01,WeatherDisplay:10.37,2013-12-05 00:33:00,
2013-12-04 19:38:00,62.4,60.0,29.97,SSE,153,0.0,0.0,92,0.00,BKN,,0.01,WeatherDisplay:10.37,2013-12-05 00:38:00,
2013-12-04 19:43:00,62.2,60.2,29.97,SSE,153,0.0,0.0,93,0.00,BKN,,0.01,WeatherDisplay:10.37,2013-12-05 00:43:00,
2013-12-04 19:48:00,62.2,60.2,29.97,SSE,153,0.0,0.0,93,0.00,BKN,,0.01,WeatherDisplay:10.37,2013-12-05 00:48:00,
2013-12-04 19:53:00,62.1,60.1,29.97,SSE,153,0.0,0.0,93,0.00,BKN,,0.01,WeatherDisplay:10.37,2013-12-05 00:53:00,
2013-12-04 19:58:00,62.0,60.0,29.97,SSE,153,0.0,0.0,93,0.00,BKN,,0.01,WeatherDisplay:10.37,2013-12-05 00:58:00,
2013-12-04 20:03:00,61.8,59.8,29.97,SSE,153,0.0,0.0,93,0.00,BKN,,0.01,WeatherDisplay:10.37,2013-12-05 01:03:00,
2013-12-04 20:08:00,61.6,59.9,29.97,SSE,153,0.0,0.0,94,0.00,BKN,,0.01,WeatherDisplay:10.37,2013-12-05 01:08:00,
2013-12-04 20:13:00,61.5,59.8,29.97,SSE,153,0.0,0.0,94,0.00,BKN,,0.01,WeatherDisplay:10.37,2013-12-05 01:13:00,
2013-12-04 20:18:00,61.4,59.7,29.98,SSE,153,0.0,0.0,94,0.00,BKN,,0.01,WeatherDisplay:10.37,2013-12-05 01:18:00,
2013-12-04 20:23:00,61.3,59.6,29.98,SSE,153,0.0,0.0,94,0.00,BKN,,0.01,WeatherDisplay:10.37,2013-12-05 01:23:00,
2013-12-04 20:28:00,61.3,59.6,29.98,SSE,153,0.0,0.0,94,0.00,BKN,,0.01,WeatherDisplay:10.37,2013-12-05 01:28:00,
2013-12-04 20:33:00,61.2,59.5,29.98,SSE,153,0.0,0.0,94,0.00,BKN,,0.01,WeatherDisplay:10.37,2013-12-05 01:33:00,
2013-12-04 20:38:00,61.1,59.4,29.99,SSE,153,0.0,0.0,94,0.00,BKN,,0.01,WeatherDisplay:10.37,2013-12-05 01:38:00,
2013-12-04 20:43:00,61.0,59.3,29.99,SSE,153,0.0,0.0,94,0.00,BKN,,0.01,WeatherDisplay:10.37,2013-12-05 01:43:00,
2013-12-04 20:48:00,61.0,59.3,29.99,SSE,153,0.0,0.0,94,0.00,BKN,,0.01,WeatherDisplay:10.37,2013-12-05 01:48:00,
2013-12-04 20:53:00,61.0,59.6,29.99,SSE,153,0.0,0.0,95,0.00,BKN,,0.01,WeatherDisplay:10.37,2013-12-05 01:53:00,
2013-12-04 20:58:00,61.0,59.6,29.99,SSE,153,0.0,0.0,95,0.00,BKN,,0.01,WeatherDisplay:10.37,2013-12-05 01:58:00,
2013-12-04 21:03:00,61.1,59.7,29.99,SSE,153,0.0,0.0,95,0.00,BKN,,0.01,WeatherDisplay:10.37,2013-12-05 02:03:00,
2013-12-04 21:08:00,61.1,59.7,29.99,SSE,153,0.0,0.0,95,0.00,BKN,,0.01,WeatherDisplay:10.37,2013-12-05 02:08:00,
2013-12-04 21:13:00,61.2,60.1,29.98,SSE,153,0.0,0.0,96,0.00,OVC,,0.01,WeatherDisplay:10.37,2013-12-05 02:13:00,
2013-12-04 21:18:00,61.2,60.1,29.99,SSE,153,0.0,0.0,96,0.00,OVC,,0.01,WeatherDisplay:10.37,2013-12-05 02:18:00,
2013-12-04 21:23:00,61.3,60.2,29.98,SSE,153,0.0,0.0,96,0.00,OVC,,0.01,WeatherDisplay:10.37,2013-12-05 02:23:00,
2013-12-04 21:28:00,61.4,60.2,29.98,SSE,153,0.0,0.0,96,0.00,OVC,,0.01,WeatherDisplay:10.37,2013-12-05 02:28:00,
2013-12-04 21:33:00,61.5,60.3,29.98,SSE,153,0.0,0.0,96,0.00,OVC,,0.01,WeatherDisplay:10.37,2013-12-05 02:33:00,
2013-12-04 21:38:00,61.5,60.3,29.98,SSE,153,0.0,0.0,96,0.00,OVC,,0.01,WeatherDisplay:10.37,2013-12-05 02:38:00,
2013-12-04 21:43:00,61.6,60.4,29.99,SSE,153,0.0,0.0,96,0.00,OVC,,0.01,WeatherDisplay:10.37,2013-12-05 02:43:00,
2013-12-04 21:48:00,61.7,60.5,29.99,SSE,153,0.0,0.0,96,0.00,OVC,,0.01,WeatherDisplay:10.37,2013-12-05 02:48:00,
2013-12-04 21:53:00,61.7,60.5,29.98,SSE,153,0.0,0.0,96,0.00,-DZ,,0.01,WeatherDisplay:10.37,2013-12-05 02:53:00,
2013-12-04 21:58:00,61.7,60.5,29.98,SSE,153,0.0,0.0,96,0.00,-DZ,,0.01,WeatherDisplay:10.37,2013-12-05 02:58:00,
2013-12-04 22:03:00,61.7,60.5,29.98,SSE,153,0.0,0.0,96,0.00,-RA,,0.01,WeatherDisplay:10.37,2013-12-05 03:03:00,
2013-12-04 22:08:00,61.8,60.6,29.98,SE,133,0.0,0.0,96,0.00,-RA,,0.01,WeatherDisplay:10.37,2013-12-05 03:08:00,
2013-12-04 22:13:00,61.8,60.6,29.98,SE,133,0.0,0.0,96,0.00,-RA,,0.01,WeatherDisplay:10.37,2013-12-05 03:13:00,
2013-12-04 22:18:00,61.8,60.6,29.98,SE,133,0.0,0.0,96,0.00,-RA,,0.01,WeatherDisplay:10.37,2013-12-05 03:18:00,
2013-12-04 22:23:00,61.8,60.6,29.98,SE,133,0.0,0.0,96,0.00,OVC,,0.01,WeatherDisplay:10.37,2013-12-05 03:23:00,
2013-12-04 22:28:00,61.9,61.0,29.98,SE,133,0.0,0.0,97,0.00,OVC,,0.01,WeatherDisplay:10.37,2013-12-05 03:28:00,
2013-12-04 22:33:00,61.9,61.0,29.99,SE,133,0.0,0.0,97,0.00,OVC,,0.01,WeatherDisplay:10.37,2013-12-05 03:33:00,
2013-12-04 22:38:00,62.0,61.1,29.99,SE,133,0.0,0.0,97,0.00,OVC,,0.01,WeatherDisplay:10.37,2013-12-05 03:38:00,
2013-12-04 22:43:00,62.1,61.2,30.00,SSW,202,2.3,2.3,97,0.00,OVC,,0.01,WeatherDisplay:10.37,2013-12-05 03:43:00,
2013-12-04 22:48:00,62.1,61.2,30.00,SW,223,0.0,0.0,97,0.00,OVC,,0.01,WeatherDisplay:10.37,2013-12-05 03:48:00,
2013-12-04 22:53:00,62.3,61.4,30.00,SW,221,0.0,0.0,97,0.00,OVC,,0.01,WeatherDisplay:10.37,2013-12-05 03:53:00,
2013-12-04 22:58:00,62.4,61.5,30.00,East,94,0.0,0.0,97,0.00,OVC,,0.01,WeatherDisplay:10.37,2013-12-05 03:58:00,
2013-12-04 23:03:00,62.6,61.7,30.00,East,94,0.0,0.0,97,0.00,OVC,,0.01,WeatherDisplay:10.37,2013-12-05 04:03:00,
2013-12-04 23:08:00,62.6,61.7,30.00,East,99,0.0,0.0,97,0.00,OVC,,0.01,WeatherDisplay:10.37,2013-12-05 04:08:00,
2013-12-04 23:13:00,62.7,61.8,30.00,East,99,0.0,0.0,97,0.00,OVC,,0.01,WeatherDisplay:10.37,2013-12-05 04:13:00,
2013-12-04 23:18:00,62.7,61.8,30.00,East,99,0.0,0.0,97,0.00,OVC,,0.01,WeatherDisplay:10.37,2013-12-05 04:18:00,
2013-12-04 23:23:00,62.8,61.9,30.00,East,99,0.0,0.0,97,0.00,OVC,,0.01,WeatherDisplay:10.37,2013-12-05 04:23:00,
2013-12-04 23:28:00,62.9,62.0,30.00,East,99,0.0,0.0,97,0.00,OVC,,0.01,WeatherDisplay:10.37,2013-12-05 04:28:00,
2013-12-04 23:33:00,63.0,62.1,30.00,East,99,0.0,0.0,97,0.00,OVC,,0.01,WeatherDisplay:10.37,2013-12-05 04:33:00,
2013-12-04 23:38:00,63.1,62.2,30.01,East,99,0.0,0.0,97,0.00,OVC,,0.01,WeatherDisplay:10.37,2013-12-05 04:38:00,
2013-12-04 23:43:00,63.2,62.3,30.01,East,99,0.0,0.0,97,0.00,OVC,,0.01,WeatherDisplay:10.37,2013-12-05 04:43:00,
2013-12-04 23:48:00,63.3,62.4,30.01,East,99,0.0,0.0,97,0.00,OVC,,0.01,WeatherDisplay:10.37,2013-12-05 04:48:00,
2013-12-04 23:53:00,63.3,62.4,30.01,East,99,0.0,0.0,97,0.00,-RA,,0.01,WeatherDisplay:10.37,2013-12-05 04:53:00,
2013-12-04 23:58:00,63.3,62.4,30.00,East,99,0.0,0.0,97,0.00,-RA,,0.01,WeatherDisplay:10.37,2013-12-05 04:58:00,